Location: Le Castellard
(44.1862°N, 6.1301°E)
Time: 16:44:41
(UTC+00:00)

Cosmos 1953 Rocket - Pass Details

Date: 18 January 2020
Orbit: 603 x 636 km, 82.5° (Epoch: 18 February)

Event Time Altitude Azimuth Distance (km) Brightness Sun altitude
Rises 05:27:04 0° 355° (N) 2,932 6.9 -17.5°
Reaches altitude 10° 05:29:21 10° 359° (N) 2,015 6.0 -17.1°
Maximum altitude 05:33:46 58° 79° (E) 731 4.2 -16.3°
Drops below altitude 10° 05:38:05 10° 159° (SSE) 1,980 6.6 -15.5°
Sets 05:40:19 0° 163° (SSE) 2,875 7.4 -15.2°
